Regional Weather Roundup
Issued by NWS

Home | Current Version | Previous Version | Text Only | Print | Product List | Glossary On
Versions: 1 2 3 4 5 6 7 8 9 10 11 12 13 14 15 16 17 18 19 20 21 22 23 24 25 26 27 28 29 30 31 32 33 34 35 36 37 38 39 40 41 42 43 44 45 46 47 48 49 50
000
ASUS44 KJAN 210010
RWRMS

MISSISSIPPI HOURLY WEATHER ROUNDUP
NATIONAL WEATHER SERVICE JACKSON MS
700 PM CDT SAT SEP 20 2014

NOTE: "FAIR: INDICATES FEW OR NO CLOUDS BELOW 12,000 FEET WITH NO
SIGNIFICANT WEATHER AND/OR OBSTRUCTIONS TO VISIBILITY.

MSZ001>002-007>008-010>013-018>021-025>028-034>036-210100-
NORTHWEST MISSISSIPPI

CITY           SKY/WX    TMP DP  RH WIND       PRES   REMARKS
CLARKSDALE     FAIR      82  70  65 CALM      29.97S
CLEVELAND      CLOUDY    84  68  58 E5        29.95R
GREENWOOD      PTCLDY    79  70  74 NE3       29.96S
6HR MIN TEMP:  79; 6HR MAX TEMP:  91;

GREENVILLE     MOCLDY    86  63  45 CALM      29.95R
6HR MIN TEMP:  86; 6HR MAX TEMP:  93;

GRENADA        FAIR      77  70  78 CALM      29.98R
OLIVE BRANCH   MOCLDY    79  72  78 CALM      29.99R
OXFORD         FAIR      75  70  83 CALM      30.01R
TUNICA         PTCLDY    79  70  73 SE5       29.97S
$$

MSZ003>006-009-014>017-022>024-029>033-037>039-210100-
NORTHEAST MISSISSIPPI

CITY           SKY/WX    TMP DP  RH WIND       PRES   REMARKS
COLUMBUS AFB   CLEAR     79  66  64 E6        29.97F
6HR MIN TEMP:  79; 6HR MAX TEMP:  89;

CORINTH        FAIR      77  70  78 CALM      29.99S
GOLDN TRIANGLE PTCLDY    84  64  51 CALM      29.99F
STARKVILLE     FAIR      79  64  61 E3        29.97F
TUPELO         PTCLDY    82  65  56 E3        29.99R
6HR MIN TEMP:  82; 6HR MAX TEMP:  88;

$$

MSZ040-058-210100-
CENTRAL MISSISSIPPI

CITY           SKY/WX    TMP DP  RH WIND       PRES   REMARKS
JACKSON INTL   PTCLDY    81  69  67 E3        29.96S
6HR MIN TEMP:  81; 6HR MAX TEMP:  90;

JACKSON HAWKNS CLEAR     84  65  52 E5        29.96S
6HR MIN TEMP:  84; 6HR MAX TEMP:  91; 6HR PCP: TRACE;

MERIDIAN KEY   CLEAR     81  62  52 E5        29.98R
6HR MIN TEMP:  81; 6HR MAX TEMP:  88;

MERIDIAN NAS   CLEAR     80  62  54 E3        29.98S
6HR MIN TEMP:  80; 6HR MAX TEMP:  89;

RAYMOND        FAIR      77  72  83 CALM      29.96S
VICKSBURG      CLEAR     83  68  60 NE6       29.95R
6HR MIN TEMP:  83; 6HR MAX TEMP:  92;

$$

MSZ059>079-210100-
SOUTH MISSISSIPPI

CITY           SKY/WX    TMP DP  RH WIND       PRES   REMARKS
BROOKHAVEN     FAIR      82  66  57 CALM      29.98S
COLUMBIA       FAIR      81  70  69 CALM      29.95R
HATTIESBURG    CLEAR     82  68  62 E3        29.96S
6HR MIN TEMP:  82; 6HR MAX TEMP:  89;

MCCOMB         CLEAR     83  68  60 CALM      29.96S
6HR MIN TEMP:  83; 6HR MAX TEMP:  89;

NATCHEZ        CLEAR     81  70  69 CALM      29.96R
6HR MIN TEMP:  81; 6HR MAX TEMP:  88;

PINE BELT      CLEAR    N/A N/A N/A CALM      29.98R
$$

MSZ080>082-210100-
COASTAL MISSISSIPPI

CITY           SKY/WX    TMP DP  RH WIND       PRES   REMARKS
BAY ST LOUIS   PTCLDY    81  68  65 SE5       29.94S
BILOXI         CLEAR     81  68  63 E10       29.95R
6HR MIN TEMP:  81; 6HR MAX TEMP:  90;

PASCAGOULA     CLEAR     78  68  71 E3        29.95S
6HR MIN TEMP:  78; 6HR MAX TEMP:  87;

GULFPORT       CLEAR     82  67  60 E7        29.93S
6HR MIN TEMP:  82; 6HR MAX TEMP:  89;

$$


USA.gov is the U.S. government's official web portal to all federal, state and local government web resources and services.